When you browse on this site, cookies collect data to enhance your experience and personalize the content and advertising you see.
Visit our Privacy Policy to learn more. By continuing to use the site, you agree to this use of cookies and data.
  • In Czech Republic
  • List of Countries
  • For 7 days
  • Water Temperature
  • Weather Map
  • Weather Widgets
  • user-avatar
    Login

    Hourly Weather Yoro

    Today, 16 February, Sunday

    Time Temperature Precipitation Wind Pressure Humidity
    00:00 +20°C° 0 mm 1 mps 701 mmHg 98%
    01:00 +20°C° 0 mm 1 mps 701 mmHg 98%
    02:00 +20°C° 0 mm 1 mps 700 mmHg 97%
    03:00 +18°C° 0 mm 0 mps 700 mmHg 97%
    04:00 +17°C° 0 mm 0 mps 700 mmHg 97%
    05:00 +17°C° 0 mm 0 mps 700 mmHg 96%
    06:00 +16°C° 0 mm 0 mps 700 mmHg 96%
    07:00 +18°C° 0 mm 0 mps 701 mmHg 87%
    08:00 +21°C° 0 mm 0 mps 701 mmHg 77%
    09:00 +23°C° 0 mm 0 mps 702 mmHg 68%
    10:00 +27°C° 0 mm 1 mps 702 mmHg 58%
    11:00 +28°C° 0 mm 1 mps 701 mmHg 49%
    12:00 +30°C° 0 mm 2 mps 701 mmHg 39%
    13:00 +30°C° 0 mm 2 mps 700 mmHg 39%
    14:00 +30°C° 0 mm 2 mps 700 mmHg 39%
    15:00 +30°C° 0 mm 3 mps 699 mmHg 39%
    16:00 +28°C° 0 mm 2 mps 699 mmHg 51%
    17:00 +25°C° 0 mm 2 mps 698 mmHg 64%
    18:00 +23°C° 0 mm 1 mps 698 mmHg 77%
    19:00 +22°C° 0 mm 1 mps 699 mmHg 83%
    20:00 +21°C° 0 mm 1 mps 699 mmHg 90%
    21:00 +20°C° 0 mm 1 mps 700 mmHg 97%
    22:00 +18°C° 0 mm 0 mps 699 mmHg 96%
    23:00 +18°C° 0 mm 0 mps 699 mmHg 96%

    Tomorrow, 17 February, Monday

    Time Temperature Precipitation Wind Pressure Humidity
    00:00 +18°C° 0 mm 0 mps 699 mmHg 96%
    01:00 +18°C° 0 mm 0 mps 699 mmHg 96%
    02:00 +18°C° 0 mm 0 mps 699 mmHg 96%
    03:00 +17°C° 0 mm 0 mps 698 mmHg 97%
    04:00 +17°C° 0 mm 0 mps 698 mmHg 97%
    05:00 +17°C° 0 mm 0 mps 698 mmHg 97%
    06:00 +16°C° 0 mm 0 mps 699 mmHg 97%
    07:00 +19°C° 0 mm 0 mps 699 mmHg 85%
    08:00 +23°C° 0 mm 1 mps 700 mmHg 72%
    09:00 +26°C° 0 mm 1 mps 701 mmHg 60%
    10:00 +27°C° 0 mm 1 mps 701 mmHg 55%
    11:00 +29°C° 0 mm 1 mps 700 mmHg 50%
    12:00 +30°C° 0 mm 2 mps 700 mmHg 45%
    13:00 +30°C° 0 mm 2 mps 699 mmHg 45%
    14:00 +30°C° 0 mm 2 mps 699 mmHg 46%
    15:00 +30°C° 0 mm 3 mps 698 mmHg 47%
    16:00 +28°C° 0 mm 2 mps 698 mmHg 59%
    17:00 +25°C° 0 mm 2 mps 698 mmHg 71%
    18:00 +23°C° 0 mm 1 mps 698 mmHg 83%
    19:00 +22°C° 0 mm 1 mps 698 mmHg 87%
    20:00 +22°C° 0 mm 1 mps 699 mmHg 92%
    21:00 +21°C° 0 mm 1 mps 699 mmHg 96%
    22:00 +21°C° 0 mm 1 mps 699 mmHg 96%
    23:00 +21°C° 0 mm 1 mps 699 mmHg 96%

    Day after tomorrow, 18 February, Tuesday

    Time Temperature Precipitation Wind Pressure Humidity
    00:00 +20°C° 0 mm 1 mps 699 mmHg 96%
    01:00 +20°C° 0 mm 1 mps 698 mmHg 96%
    02:00 +20°C° 0 mm 1 mps 698 mmHg 97%
    03:00 +19°C° 0 mm 1 mps 698 mmHg 97%
    04:00 +19°C° 0 mm 1 mps 698 mmHg 97%
    05:00 +19°C° 0 mm 1 mps 698 mmHg 96%
    06:00 +18°C° 0 mm 1 mps 698 mmHg 96%
    07:00 +21°C° 0 mm 1 mps 699 mmHg 84%
    08:00 +24°C° 0 mm 1 mps 700 mmHg 72%
    09:00 +26°C° 0 mm 1 mps 701 mmHg 60%
    10:00 +28°C° 0 mm 1 mps 701 mmHg 53%
    11:00 +30°C° 0 mm 1 mps 700 mmHg 47%
    12:00 +31°C° 0 mm 1 mps 700 mmHg 40%
    13:00 +31°C° 0 mm 2 mps 700 mmHg 40%
    14:00 +32°C° 0 mm 2 mps 699 mmHg 39%
    15:00 +32°C° 0 mm 2 mps 699 mmHg 39%
    16:00 +30°C° 0 mm 2 mps 698 mmHg 51%
    17:00 +27°C° 0 mm 1 mps 698 mmHg 62%
    18:00 +25°C° 0 mm 1 mps 698 mmHg 74%
    19:00 +24°C° 0 mm 1 mps 699 mmHg 80%
    20:00 +23°C° 0 mm 1 mps 699 mmHg 86%
    21:00 +19°C° 0 mm 0 mps 699 mmHg 93%
    22:00 +19°C° 0 mm 0 mps 699 mmHg 93%
    23:00 +19°C° 0 mm 0 mps 699 mmHg 94%

    19 February, Wednesday

    Time Temperature Precipitation Wind Pressure Humidity
    00:00 +21°C° 0 mm 1 mps 699 mmHg 95%
    01:00 +20°C° 0 mm 1 mps 699 mmHg 95%
    02:00 +18°C° 0 mm 0 mps 699 mmHg 96%
    03:00 +18°C° 0 mm 0 mps 699 mmHg 96%
    04:00 +20°C° 0 mm 1 mps 699 mmHg 96%
    05:00 +19°C° 0 mm 1 mps 699 mmHg 96%
    06:00 +19°C° 0 mm 1 mps 699 mmHg 96%
    07:00 +22°C° 0 mm 1 mps 700 mmHg 86%
    08:00 +24°C° 0 mm 1 mps 701 mmHg 76%
    09:00 +27°C° 0 mm 1 mps 702 mmHg 65%
    10:00 +28°C° 0 mm 1 mps 702 mmHg 57%
    11:00 +30°C° 0 mm 1 mps 702 mmHg 48%
    12:00 +32°C° 0 mm 2 mps 702 mmHg 40%
    13:00 +32°C° 0 mm 2 mps 701 mmHg 41%
    14:00 +33°C° 0 mm 3 mps 700 mmHg 42%
    15:00 +33°C° 0 mm 3 mps 700 mmHg 43%
    16:00 +29°C° 0 mm 3 mps 700 mmHg 55%
    17:00 +27°C° 0 mm 2 mps 699 mmHg 66%
    18:00 +25°C° 0 mm 1 mps 699 mmHg 78%
    19:00 +24°C° 0 mm 1 mps 700 mmHg 84%
    20:00 +23°C° 0 mm 1 mps 700 mmHg 90%
    21:00 +22°C° 0 mm 1 mps 701 mmHg 96%
    22:00 +22°C° 0.1 mm 1 mps 700 mmHg 96%
    23:00 +19°C° 0.1 mm 0 mps 700 mmHg 97%

    20 February, Thursday

    Time Temperature Precipitation Wind Pressure Humidity
    00:00 +19°C° 0.1 mm 0 mps 700 mmHg 97%
    01:00 +19°C° 0 mm 0 mps 700 mmHg 97%
    02:00 +18°C° 0 mm 0 mps 700 mmHg 98%
    03:00 +18°C° 0 mm 0 mps 699 mmHg 98%
    04:00 +18°C° 0 mm 0 mps 700 mmHg 98%
    05:00 +17°C° 0 mm 0 mps 700 mmHg 97%
    06:00 +17°C° 0 mm 0 mps 700 mmHg 97%
    07:00 +20°C° 0 mm 0 mps 701 mmHg 86%
    08:00 +22°C° 0 mm 0 mps 702 mmHg 76%
    09:00 +24°C° 0 mm 0 mps 702 mmHg 65%
    10:00 +28°C° 0 mm 1 mps 702 mmHg 57%
    11:00 +30°C° 0 mm 1 mps 702 mmHg 50%
    12:00 +31°C° 0 mm 2 mps 702 mmHg 43%
    13:00 +31°C° 0 mm 2 mps 701 mmHg 45%
    14:00 +31°C° 0 mm 2 mps 701 mmHg 46%
    15:00 +31°C° 0 mm 3 mps 700 mmHg 48%
    16:00 +28°C° 0.1 mm 2 mps 700 mmHg 61%
    17:00 +26°C° 0.1 mm 2 mps 700 mmHg 74%
    18:00 +24°C° 0.1 mm 1 mps 700 mmHg 86%
    19:00 +23°C° 0.1 mm 1 mps 700 mmHg 90%
    20:00 +23°C° 0.1 mm 1 mps 701 mmHg 94%
    21:00 +22°C° 0.1 mm 1 mps 701 mmHg 98%
    22:00 +22°C° 0 mm 1 mps 701 mmHg 98%
    23:00 +21°C° 0 mm 1 mps 701 mmHg 98%

    21 February, Friday

    Time Temperature Precipitation Wind Pressure Humidity
    00:00 +21°C° 0 mm 1 mps 701 mmHg 98%
    07:00 +21°C° 0 mm 1 mps 702 mmHg 89%
    08:00 +23°C° 0 mm 1 mps 703 mmHg 81%
    09:00 +25°C° 0 mm 1 mps 704 mmHg 73%
    10:00 +26°C° 0 mm 2 mps 704 mmHg 63%
    11:00 +28°C° 0 mm 3 mps 703 mmHg 54%
    12:00 +30°C° 0 mm 3 mps 703 mmHg 45%
    13:00 +29°C° 0 mm 3 mps 703 mmHg 45%
    14:00 +29°C° 0 mm 4 mps 702 mmHg 46%
    15:00 +29°C° 0 mm 4 mps 701 mmHg 47%
    16:00 +27°C° 0 mm 3 mps 702 mmHg 57%
    17:00 +24°C° 0 mm 2 mps 702 mmHg 67%
    18:00 +21°C° 0 mm 2 mps 702 mmHg 77%
    19:00 +22°C° 0 mm 1 mps 702 mmHg 83%
    20:00 +21°C° 0 mm 1 mps 702 mmHg 90%
    21:00 +20°C° 0 mm 1 mps 703 mmHg 97%
    22:00 +20°C° 0.1 mm 1 mps 703 mmHg 97%
    23:00 +20°C° 0.1 mm 1 mps 703 mmHg 97%
    Show more